Погода в Кургане

Погода в Кургане : погода сейчас, прогноз погоды и архив. Всё, что Вы хотите узнать о погоде в Кургане!

Хотите узнать прогноз погоды в Кургане? Тогда Вам сюда: Погода в Кургане

Поиск расширенной информации на нашем сайте:

Полезная информация: Решебник по геометрии 9 класс включая планиметрию
Где провести корпоративное мероприятие в Санкт-Петербурге spb.go2all.ru.

Другие новости

Новости СМИ2

Главная страница сайта

Новости сайта

02.10.2013

Напоминаем, что на нашем новом сайте вы можете получить высокодетализированные прогнозы погоды по пунктам России, СНГ и мира (включающие важные для авиации метеовеличины, такие как направление и скорость ветра, видимость, явления погоды, количество и форма облачности, нижняя и верхняя граница облачности), а также ознакомиться с разнообразными материалами по авиационной метеорологии и подборкой полезных ссылок на эту тему.

Сайт Метеоцентр.Азия посвящён разработке технологий оптимизации авиаметеорологического обслуживания, включая проектирование и перспективное создание нескольких автоматизированных авиаметеорологических систем:
- система выпуска высокодетальных прогностических карт явлений погоды для нижнего воздушного пространства по России и ближнему зарубежью;
- система верификации прогнозов TAF (выпускаемых синоптиками официальных АМСГ РФ и ближнего зарубежья) и AUTOTAF (выпускаемых сайтом Метеоцентр.Азия) - выявление ошибок, онлайн-сопоставление с фактической погодой METAR, автоматическое внесение коррективов в прогнозы при резком отклонении фактической погоды от прогноза, подсчёт оправдываемости прогнозов по элементам и в целом;
- система обработки, анализа и отображения авиаметеорологической информации для применения провайдерами метеорологической информации.

Рекомендуем: инфракрасные обогреватели для дома цена

Погода в Кургане - сегодня

Время (UTC), дата Ветер
(°,м/с) 
Видим.   Явления Облачность Т
(°С)
Тd
(°С)
f(%) Тe
(°С)
Pmin
(гПа)
dP
(гПа)
Po
(мм)
O2
(г/м3)
Тmin Tmax R s Состояние
почвы
15 20.04.14 240 (ЮЗ) 5{10}  20000 м    10/0 средняя, верхняя 
[Ac trans|Ci fib]
+14.6 -4.5 26 +14  1011.2  -1.6  752  288    +18       
18 20.04.14 220 (ЮЗ) 10 км    4/0 верхняя 
[Ci fib]
+10.6 -2.8 39 +9  1010.2  -1.1  751  292           
21 20.04.14 220 (ЮЗ) 10 км    8/0 средняя, верхняя 
[Ac trans|Ci fib]
+7.5 -2.9 48 +6  1008.4  -1.9  749  294           
00 21.04.14 190 (Ю) 10 км  слаб. дождь  10/0 средняя 
[Ac und]
+6.8 -0.5 60 +7  1007.9  -0.4  749  295           
03 21.04.14 300 (СЗ) 20000 м  {дождь}  8/4 1000 м кучево-дожд., средняя, верхняя 
[Cb cap|Ac trans|Ci fib]
+9.8 +1.4 56 +9  1007.6  -0.2  749  291  +6.5    0.0    влажная 
06 21.04.14 320 (СЗ) 10-12{14}  20000 м  {дождь}  8/6 1000 м кучево-дожд., верхняя 
[Cb cap|Ci fib]
+10.9 -2 40 +9  1008.8  1.2  750  291           
09 21.04.14 330 (СЗ) 10-13{15}  20000 м    6/5 1000 м верхняя 
[Cu hum|Ci fib]
+11.5 -7.8 25 +9  1010.7  1.8  751  291           
12 21.04.14 350 (С) 5-10{17}  20000 м  в посл. час ливневой дождь  8/5 1000 м кучево-дожд., верхняя 
[Cb cap|Ci fib]
+6.4 -2.9 51 +5  1012.8  1.9  753  297           
15 21.04.14 350 (С) 9-13{15}  20000 м  {ливн. осадки}  6/4 1000 м кучево-дожд., верхняя 
[Cb cap|Ci fib]
+2.3 -9.1 43 -2  1018.1  5.1  757  303    +12.6  0.0     
18 21.04.14 330 (СЗ) 5{15}  10 км  {ливн. осадки}  4/0 средняя 
[Ac trans]
+0.6 -12.2 38 -2  1021.6  3.4  759  306           
21 21.04.14 310 (СЗ) 10 км    ясно 
-1 +0 100 -4  1023.9  2.1  761  308           
00 22.04.14 310 (СЗ) 20000 м    3/0 средняя 
[Ac trans]
-2.8 -11.2 52 -6  1026.6  2.7  763  312           
03 22.04.14 330 (СЗ) 8{11}  20000 м    3/3 1000 м 
[Sc]
+1 -11.4 39 -3  1029.4  2.8  765  308  -3        сухая 
06 22.04.14 330 (СЗ) 6{11}  20000 м    ясно 
+3.7 -15.5 23 +1  1031.3  766  306           
09 22.04.14 300 (СЗ) 7{12}  20000 м    ясно 
+7.1 -16.2 17 +5  1031.2  766  302           
12 22.04.14 260 (З) 20000 м    4/0 верхняя 
[Ci fib]
+7.9 -16.2 16 +7  1030.5  -0.6  766  301           
15 22.04.14 230 (ЮЗ) 20000 м    3/0 верхняя 
[Ci fib]
+4.5 -14.1 24 +3  1029.4  -1.2  765  304    +8.3       
18 22.04.14 190 (Ю) 10 км    3/0 верхняя 
[Ci fib]
+1.9 -9.8 42 -1  1028.1  -1.4  764  307           
21 22.04.14 190 (Ю) 5{11}  10 км    8/0 верхняя 
[Ci fib]
+3.2 -8.6 42 +1  1026.3  -1.7  763  305           
00 23.04.14 190 (Ю) 20000 м    6/0 средняя, верхняя 
[Ac trans|Ci fib]
+1.5 -5.9 58 -2  1024.3  -2.1  761  306           
03 23.04.14 190 (Ю) 8-11{11}  20000 м    8/0 средняя, верхняя 
[Ac trans|Ci]
+4.8 -3.5 55 +2  1022.5  -1.6  760  301  +1.5        сухая 
06 23.04.14 210 (ЮЗ) 10-16{16}  20000 м    10/0 средняя, верхняя 
[Ac trans|Ci]
+11.8 -6.1 28 +10  1019.5  -2.8  758  293           
09 23.04.14 200 (Ю) 12-16{16}  10 км    10/0 средняя, верхняя 
[Ac trans|Ci]
+15.3 -6.3 22 +14  1016.5  -2.7  756  289           
12 23.04.14 200 (Ю) 11-17{20}  20000 м    10/3 1000 м кучево-дожд., средняя, верхняя 
[Cb cap|Ac trans|Ci fib]
+14.2 -5.3 25 +13  1014.1  -2.4  754  289           
15 23.04.14 190 (Ю) 6-10{17}  10 км    10/0 средняя, верхняя 
[Ac trans|Ci fib]
+11.7 -7.9 25 +10  1011.9  -2.2  752  291    +16.2       
Время (UTC), дата Ветер
(°,м/с) 
Видим.   Явления Облачность Т
(°С)
Тd
(°С)
f(%) Тe
(°С)
Pmin
(гПа)
dP
(гПа)
Po
(мм)
O2
(г/м3)
Тmin Tmax R s Состояние
почвы

Для получения пояснительной информации подведите курсор к названию столбца.

ПОГОДА в Кургане - архив

Всё, что Вы хотите узнать о погоде в Кургане - удобно и подробно!

Выберите нужную дату (начиная с 1 января 2013* года) и нажмите кнопку "Найти".
Будут отображены архивные сводки погоды по пункту Курган, начиная с указанной даты.


Отображать данные в формате CSV (для использования в таблицах Excel)


Внимание! Наш архив погоды предназначен исключительно для личного некоммерческого использования в познавательных целях. Если Вам необходимы официальные справки о состоянии погоды (для производственных, юридических, коммерческих и т.п. целей), обращайтесь в органы Росгидромета.

*Примечание: данная дата относится к архиву по метеостанциям СССР (Россия, СНГ, Балтия).
Архив по метеостанциям Зарубежной Европы и Азии (кроме Китая) хранится 10 дней, по другим регионам земного шара (Китай, Африка, Америка, Австралия, Океания) - 1 день.

Курган - район местоположения метеостанции


Название, широта, долгота, высота метеостанции:
Курган 55.5°ш. 65.4°д. 74 м над ур. моря [Российская Федерация]

Дополнительная информация

В oтличие oт бoльшинства пoгoдных сайтoв мы публикуем пoдрoбную метеoинфoрмацию в детальнoм прoфессиoнальнoм фoрмате.

Характеристики температуры и влажнoсти вoздуха измеряются на высoте 2 м в тени вдали oт зданий и деревьев.
Скoрoсть ветра измеряется на высoте 10 м (на урoвне рoста челoвека скoрoсть ветра ниже в 1.5-2 раза). Если метеoстанция нахoдится в гoрoде или в лесу, тo скoрoсть ветра занижена на 2-4 м/с пo сравнению с oткрытым местoм. Скoрoсть ветра над акватoриями крупных рек и oзёр, а также на вершинах хoлмoв на 2-5 м/с выше, чем в oбычных услoвиях.
Атмoсфернoе давление в разных тoчках местнoсти мoжет значительнo oтличаться oт давления на метеoстанции, в зависимoсти oт услoвий рельефа (при пoдъёме на 10 м давление пoнижается примернo на 1 мм рт.ст.).